SL-14 DEB, 45270

Orbit data source: Space-Track

SL-14 DEB, 45270 is space debris in LEO originally from a launch on Thu, 15 Aug 1991 UTC launched from the Plesetsk Missile And Space Complex (PKMTR). Debris objects in space refer to the collection of defunct objects orbiting the Earth. Examples of debris include non-operational satellites, rocket bodies, and fragments generated from explosions, collisions, or faulty payload assembly.

Loading next visibility...
Identifier
45270, 1991-056G
Orbit
LEO
Country
Flag of CISCIS
Related business
Manufacturer
Unknown
Mission
Spacecraft
Bus & Motor
Unknown
Mass
Unknown
Launch date (UTC)
1991-08-15 (34 years ago)
Launch vehicle
Unknown
Launch site
Plesetsk Missile And Space Complex (PKMTR)
Object type
Payload
Rocket body
Debris
Shape & HBR
Unknown shape, 0.1 m
Radar Cross Section
Small (<0.1 m²)

Expand to show TLE details & history
Last TLE update: 11 hours ago

TLE from 11 hours ago
0 SL-14 DEB
1 45270U 91056G   26035.48982205  .00000159  00000-0  35168-3 0  9994
2 45270  82.5649 222.0404 0032319  17.6147 342.6091 13.22398516288511
Epoch: 2026-02-04T11:45Z
TLE epoch observation values (Epoch: 2026-02-04T11:45:20.625Z)
Latitude
-0.00002°
Longitude
-88.9512°
Altitude
1,155.094 km
Speed
7.287 km/s
True Right ascension
14h 48m 09s
True Declination
0° 00' 00"
Sunlit
Object was in daylight at epoch
Visualization orbit readout
Latitude
Unknown
Longitude
Unknown
Altitude
Unknown
Speed
Unknown
Apparent Right ascension
Unknown
Apparent Declination
Unknown
Sunlit
N/A
Visualization observer readout
Local Sidereal Time
00:48:00
Azimuth
Unknown
Elevation
Unknown
Doppler factor
Unknown
Orbital elements
Apogee altitude
1,197.213 km
Perigee altitude
1,148.405 km
Semi-major axis
7,550.946 km
Eccentricity
0.00323
Inclination
82.5649°
RAAN
222.0404°
Arg. of periapsis
17.6147°
True anomaly
342.49798°
Mean anomaly
342.6091°
Eccentric anomaly
342.55358°
Mean motion
3.30781 °/min
Orbital period
108.83 mins
BSTAR
0.00035168
Loading maneuver chart data...
Computing Atmospheric mass density...
Loading historical data...
Loading historical data...
Loading historical data...
Loading historical data...
Loading historical data...
Loading historical data...
Loading historical data...

Documentation

Showing up to 5 results
|